SL-16 DEB, 18417

Orbit data source: Space-Track

SL-16 DEB, 18417 is space debris in LEO originally from a launch on Wed, 18 Mar 1987 UTC launched from the Tyuratam Missile And Space Complex (TTMTR). Debris objects in space refer to the collection of defunct objects orbiting the Earth. Examples of debris include non-operational satellites, rocket bodies, and fragments generated from explosions, collisions, or faulty payload assembly.

Loading next visibility...
Identifier
18417, 1987-027D
Orbit
LEO
Country
Flag of CISCIS
Related business
Manufacturer
Yuzhnoe
Mission
Spacecraft
Bus & Motor
SEP MOTOR COVER, Unknown motor
Mass
~0 kg wet, ~1 kg dry
Launch date (UTC)
1987-03-18 (39 years ago)
Launch vehicle
Unknown
Launch site
Tyuratam Missile And Space Complex (TTMTR)
Object type
Payload
Rocket body
Debris
Shape & HBR
Unknown shape, 0.1 m
Radar Cross Section
Small (<0.1 m²)

Expand to show TLE details & history
Last TLE update: 1 day ago

TLE from 1 day ago
0 SL-16 DEB
1 18417U 87027D   25341.02751382  .00000184  00000-0  20652-3 0  9999
2 18417  70.9997   0.6817 0202166 191.3599 195.6468 13.74617181941114
Epoch: 2025-12-07T00:39Z
TLE epoch observation values (Epoch: 2025-12-07T00:39:37.194Z)
Latitude
24.89267°
Longitude
-76.12302°
Altitude
1,129.04 km
Speed
7.219 km/s
True Right ascension
00h 39m 18s
True Declination
24° 46' 05"
Sunlit
Object was in partial shadow at epoch
Visualization orbit readout
Latitude
Unknown
Longitude
Unknown
Altitude
Unknown
Speed
Unknown
Apparent Right ascension
Unknown
Apparent Declination
Unknown
Sunlit
N/A
Visualization observer readout
Local Sidereal Time
23:26:12
Azimuth
Unknown
Elevation
Unknown
Doppler factor
Unknown
Orbital elements
Apogee altitude
1,129.781 km
Perigee altitude
832.228 km
Semi-major axis
7,359.142 km
Eccentricity
0.02022
Inclination
70.9997°
RAAN
0.6817°
Arg. of periapsis
191.3599°
True anomaly
195.03685°
Mean anomaly
195.6468°
Eccentric anomaly
195.34036°
Mean motion
3.43797 °/min
Orbital period
104.71 mins
BSTAR
0.00020652
Loading maneuver chart data...
Computing Atmospheric mass density...
Loading historical data...
Loading historical data...
Loading historical data...
Loading historical data...
Loading historical data...
Loading historical data...
Loading historical data...

Documentation

Showing up to 5 results
|